Location: Peterborough
(44.3091°N, 78.3197°W)
Time: 04:22:30
(UTC-04:00)

Tiros 1 - Pass Details

Date: 08 April 2023
Orbit: 627 x 661 km, 48.4° (Epoch: 09 June)

Event Time Altitude Azimuth Distance (km) Brightness Sun altitude
Rises 00:04:25 0° 199° (SSW) 2,933 - -36.2°
Reaches altitude 10° 00:07:14 10° 182° (S) 2,034 - -36.4°
Maximum altitude 00:10:38 20° 136° (SE) 1,496 - -36.6°
Drops below altitude 10° 00:14:03 10° 90° (E) 2,059 - -36.8°
Sets 00:16:55 0° 73° (ENE) 2,979 - -36.9°
